This demonstration page uses our WeatherBlox Daily Observations layout. Learn more.

Hourly Observations for June 25, 2020

Temp ( °F °C ) Dew Point ( °F °C ) Humidity (%) Winds ( mph kmh ) Pressure ( in mb ) Visibility ( mi km ) Precip ( " mm )
12:54 am 00:54 Mostly Cloudy 69 20.6 58 14.4 68 68 S 5 7 29.91 1013 10 16.0934 0 0
1:50 am 01:50 Cloudy with Nearby Thunderstorms 68 20 61 16 78 78 SW 8 13 29.91 1013 4 6.43736 0.04 1.016
1:54 am 01:54 Cloudy with Nearby Thunderstorms 68 20 61 16.1 78 78 S 7 11 29.91 1013 4 6.43736 0.06 1.524
2:01 am 02:01 Cloudy with Light Thunderstorms 67 19.4 60 15.6 79 79 WSW 5 7 29.91 1013 8 12.87472 0.01 0.254
2:16 am 02:16 Cloudy with Nearby Thunderstorms 68 20 60 15.6 76 76 SSE 9 15 29.89 1012 4 6.43736 0.1 2.54
2:27 am 02:27 Cloudy with Light Thunderstorms 68 20 60 15.6 76 76 SW 3 6 29.91 1013 8 12.87472 0.12 3.048
2:52 am 02:52 Cloudy with Nearby Thunderstorms 68 20 61 16 78 78 SSE 9 15 29.89 1012 9 14.48406 0.27 6.858
2:54 am 02:54 Mostly Cloudy with Light Rain 68 20 60 15.6 76 76 SSE 9 15 29.89 1012 9 14.48406 0.27 6.858
3:28 am 03:28 Mostly Cloudy with Nearby Thunderstorms 66 18.9 60 15.6 81 81 SSE 9 15 29.9 1013 10 16.0934 0.001 0.001
3:50 am 03:50 Mostly Cloudy 64 18 61 16 88 88 SSE 7 11 29.92 1013 10 16.0934 0.001 0.001
3:54 am 03:54 Mostly Cloudy 65 18.3 60 15.6 84 84 SSE 8 13 29.91 1013 10 16.0934 0.001 0.001
4:54 am 04:54 Partly Cloudy 66 18.9 60 15.6 81 81 SSE 9 15 29.89 1012 10 16.0934 0 0
5:54 am 05:54 Mostly Clear 65 18.3 60 15.6 84 84 SSE 7 11 29.9 1013 10 16.0934 0 0
6:54 am 06:54 Sunny 68 20 62 16.7 81 81 S 6 9 29.9 1013 10 16.0934 0 0
7:54 am 07:54 Sunny 72 22.2 62 16.7 71 71 SSE 9 15 29.9 1013 10 16.0934 0 0
8:54 am 08:54 Sunny 76 24.4 64 17.8 67 67 SSE 9 15 29.89 1012 10 16.0934 0 0
9:54 am 09:54 Sunny 78 25.6 66 18.9 67 67 SSE 16 26 29.89 1012 10 16.0934 0 0
10:54 am 10:54 Sunny 81 27.2 65 18.3 58 58 SSE 14 22 29.88 1012 10 16.0934 0 0
11:54 am 11:54 Sunny 83 28.3 65 18.3 55 55 S 13 20 29.86 1011 10 16.0934 0 0
12:54 pm 12:54 Sunny 85 29.4 66 18.9 53 53 SSE 14 22 29.85 1011 10 16.0934 0 0
1:54 pm 13:54 Sunny 87 30.6 66 18.9 50 50 S 16 26 29.83 1010 10 16.0934 0 0
2:54 pm 14:54 Sunny 90 32.2 65 18.3 44 44 S 16 26 29.81 1010 10 16.0934 0 0
3:54 pm 15:54 Sunny 91 32.8 66 18.9 44 44 SSE 18 30 29.79 1009 10 16.0934 0 0
4:54 pm 16:54 Sunny 92 33.3 65 18.3 41 41 S 17 28 29.78 1008 10 16.0934 0 0
5:54 pm 17:54 Sunny 92 33.3 61 16.1 36 36 S 16 26 29.76 1008 10 16.0934 0 0
6:54 pm 18:54 Sunny 90 32.2 65 18.3 44 44 S 13 20 29.74 1007 10 16.0934 0 0
7:54 pm 19:54 Sunny 85 29.4 67 19.4 55 55 S 10 17 29.74 1007 10 16.0934 0 0
8:54 pm 20:54 Sunny 82 27.8 65 18.3 56 56 SSE 7 11 29.77 1008 10 16.0934 0 0
9:54 pm 21:54 Clear 81 27.2 66 18.9 61 61 S 8 13 29.79 1009 10 16.0934 0 0
10:54 pm 22:54 Clear 79 26.1 66 18.9 65 65 SSE 7 11 29.8 1009 10 16.0934 0 0
11:54 pm 23:54 Clear 79 26.1 66 18.9 65 65 S 10 17 29.8 1009 10 16.0934 0 0

Powered by AerisWeather